Date,TemperatureHighF,TemperatureAvgF,TemperatureLowF,DewpointHighF,DewpointAvgF,DewpointLowF,HumidityHigh,HumidityAvg,HumidityLow,PressureMaxIn,PressureMinIn,WindSpeedMaxMPH,WindSpeedAvgMPH,GustSpeedMaxMPH,PrecipitationSumIn
2013-1-1,33.4,24.2,15.2,32.4,21.9,13.0,96,91,85,30.05,29.84,12,6,19,0.00
2013-1-2,25.5,20.4,13.3,23.7,18.0,11.2,94,90,84,30.25,29.99,8,4,13,0.00
2013-1-3,29.8,21.7,11.3,27.4,19.0,8.9,94,89,83,30.24,29.99,7,4,12,0.00
2013-1-4,35.6,32.3,28.0,27.8,25.7,23.0,87,77,66,30.00,29.87,14,9,22,0.00
2013-1-5,36.7,33.2,28.1,29.3,26.4,23.8,84,76,62,30.29,30.01,10,4,17,0.00
2013-1-6,38.9,36.0,31.5,33.8,31.1,25.2,91,82,75,30.07,29.89,8,4,13,0.00
2013-1-7,36.4,28.3,22.3,33.5,23.8,19.0,90,83,70,30.40,30.07,8,4,11,0.00
2013-1-8,40.2,31.2,21.1,27.7,23.3,18.4,90,73,60,30.33,30.19,7,2,10,0.00
2013-1-9,49.4,35.7,20.9,37.5,28.6,18.2,94,76,61,30.30,29.95,13,6,27,0.00
2013-1-10,41.9,37.6,31.1,33.3,30.0,27.5,89,74,62,30.59,30.33,14,4,19,0.00
2013-1-11,43.1,39.6,34.2,39.1,34.1,29.6,91,81,68,30.44,29.91,14,9,18,0.12
2013-1-12,54.3,45.8,38.9,49.4,43.3,37.3,96,91,83,30.01,29.95,7,4,8,0.00
2013-1-13,68.6,54.7,44.2,57.7,50.8,42.6,96,87,68,29.98,29.75,10,5,13,0.00
2013-1-14,53.0,37.8,30.6,49.9,31.1,22.1,92,77,65,30.38,29.74,14,5,23,0.00
2013-1-15,35.3,30.9,28.5,26.4,23.6,21.3,86,75,58,30.40,30.20,6,2,10,0.00
2013-1-16,38.7,33.6,30.2,31.6,27.6,24.1,89,79,62,30.17,29.78,7,3,10,0.00
2013-1-17,37.3,27.1,18.6,30.9,20.1,13.1,89,75,64,30.20,29.84,12,6,15,0.00
2013-1-18,31.5,21.9,13.6,19.5,14.1,9.2,92,73,52,30.43,30.06,9,4,13,0.00
2013-1-19,49.6,43.3,35.1,31.5,26.3,18.7,63,51,40,30.06,29.60,12,7,17,0.00
2013-1-20,49.3,33.9,20.4,37.3,22.1,11.2,84,63,44,30.06,29.43,17,10,27,0.01
2013-1-21,23.4,20.6,16.1,14.6,11.5,9.0,78,68,62,30.06,29.87,6,3,12,0.00
2013-1-22,16.9,12.8,9.0,6.7,1.6,-4.0,83,61,45,30.19,29.90,12,7,21,0.00
2013-1-23,13.5,8.1,-3.9,8.8,3.7,-7.8,88,82,66,30.25,30.14,6,3,9,0.00
2013-1-24,15.9,7.8,-5.1,10.3,3.2,-8.7,88,81,69,30.53,30.14,10,3,12,0.00
2013-1-25,17.2,12.7,4.7,12.6,8.7,2.2,90,84,69,30.52,30.11,5,2,7,0.00
2013-1-26,23.9,14.2,2.1,17.4,9.9,-0.9,92,83,63,30.41,30.12,5,1,8,0.01
2013-1-27,27.9,22.1,18.7,18.0,15.9,13.0,88,77,61,30.57,30.41,6,2,7,0.00
2013-1-28,41.5,32.9,22.4,40.7,30.0,17.7,98,89,73,30.39,29.86,9,4,14,0.05
2013-1-29,51.5,39.9,32.6,51.2,39.4,32.1,99,98,97,30.07,29.77,14,3,14,0.43
2013-1-30,64.4,56.7,50.1,56.5,51.2,48.2,98,82,68,29.75,29.03,17,8,21,0.07
2013-1-31,55.1,31.9,23.6,52.5,22.5,12.3,93,69,49,29.68,28.99,18,11,28,0.22
2013-2-1,23.8,21.3,19.2,18.4,14.7,10.1,91,76,59,30.19,29.69,11,6,14,0.00
2013-2-2,23.1,19.3,14.1,16.0,12.0,7.9,88,73,63,30.20,29.99,9,5,11,0.00
2013-2-3,26.8,19.4,10.4,18.3,14.0,8.0,93,80,57,29.99,29.80,8,2,11,0.00
2013-2-4,23.7,20.9,17.9,16.3,13.0,10.3,87,71,57,29.95,29.85,9,4,16,0.00
2013-2-5,27.3,22.1,15.7,21.3,16.7,12.8,90,80,68,29.99,29.86,7,2,10,0.00
2013-2-6,28.8,24.0,14.6,25.6,17.0,9.3,90,75,53,30.40,29.88,13,5,22,0.00
2013-2-7,32.7,24.1,13.6,23.8,16.4,11.1,91,73,59,30.47,30.12,12,6,16,0.00
2013-2-8,34.5,30.3,20.2,33.0,26.4,18.2,96,86,63,30.11,29.79,11,7,14,0.05
2013-2-9,22.4,18.8,10.2,19.3,16.3,7.4,93,90,84,30.43,30.08,5,2,9,0.00
2013-2-10,35.7,19.6,-0.2,25.8,14.0,-4.0,92,80,66,30.44,30.00,12,5,14,0.01
2013-2-11,49.1,39.0,35.0,42.2,31.3,25.5,84,74,64,30.00,29.56,16,9,24,0.14
2013-2-12,36.7,34.2,32.2,31.3,28.2,25.2,91,79,65,29.96,29.68,14,8,23,0.00
2013-2-13,38.5,31.8,22.8,27.3,25.1,21.1,95,77,57,29.92,29.73,6,2,8,0.00
2013-2-14,39.0,33.0,21.7,35.4,28.7,20.0,95,84,66,29.93,29.79,8,4,11,0.15
2013-2-15,39.3,35.4,27.2,36.0,25.8,18.0,94,68,54,30.05,29.78,12,7,21,0.00
2013-2-16,28.0,24.8,21.4,21.2,18.3,16.0,83,76,67,30.06,29.93,8,2,9,0.00
2013-2-17,22.8,17.1,13.5,18.7,12.2,5.8,91,81,67,30.18,29.91,12,6,18,0.00
2013-2-18,30.4,21.2,12.9,18.9,13.2,8.2,89,72,56,30.31,29.96,9,4,14,0.04
2013-2-19,42.1,34.8,27.6,35.7,26.0,19.0,87,71,57,29.96,29.55,12,8,20,0.06
2013-2-20,27.5,23.9,21.2,20.9,16.2,12.8,82,72,60,30.04,29.75,14,9,23,0.00
2013-2-21,23.0,19.1,15.2,18.5,14.5,9.4,89,82,74,30.43,30.02,14,7,25,0.00
2013-2-22,35.7,27.8,18.5,29.4,23.1,15.4,93,83,70,30.42,30.03,12,6,16,0.00
2013-2-23,39.7,35.6,32.9,34.2,30.9,26.2,92,83,76,30.03,29.87,11,5,14,0.07
2013-2-24,34.4,32.3,31.2,29.6,26.9,24.7,91,81,74,30.05,29.85,8,4,13,0.03
2013-2-25,37.5,33.9,29.0,30.3,28.7,26.4,90,81,65,30.24,30.05,6,2,10,0.00
2013-2-26,42.7,34.4,24.0,32.9,28.7,22.3,95,81,60,30.25,29.88,15,7,22,0.04
2013-2-27,36.7,34.5,33.6,35.4,33.2,32.0,97,95,92,29.85,29.57,12,4,16,0.96
2013-2-28,38.7,35.5,33.7,34.2,33.4,32.8,97,92,80,29.71,29.54,6,3,10,0.55
2013-3-1,34.6,31.1,28.2,33.3,27.6,23.4,95,87,79,29.92,29.71,11,5,13,0.02
2013-3-2,28.2,25.6,24.2,25.4,22.3,20.7,92,87,81,29.94,29.87,8,4,13,0.00
2013-3-3,25.5,24.0,22.2,22.6,19.9,17.5,93,84,73,29.89,29.85,9,4,13,0.02
2013-3-4,31.1,27.1,23.1,24.0,20.9,18.1,86,77,67,30.04,29.89,12,7,15,0.00
2013-3-5,32.6,28.0,23.1,25.8,23.1,20.7,92,82,73,30.10,29.99,9,3,10,0.01
2013-3-6,40.4,33.6,21.6,34.0,29.2,18.9,92,84,69,30.15,29.98,11,5,15,0.00
2013-3-7,37.7,34.9,32.3,34.1,30.8,25.6,95,85,72,30.28,30.14,8,4,12,0.00
2013-3-8,39.6,34.1,26.9,27.3,25.3,23.8,88,71,54,30.39,30.26,11,4,16,0.00
2013-3-9,46.2,35.5,26.2,35.6,29.0,23.3,94,78,53,30.42,30.25,7,2,9,0.00
2013-3-10,59.7,47.8,34.6,35.8,30.7,27.5,75,53,36,30.24,29.98,11,6,16,0.00
2013-3-11,55.1,50.8,47.4,45.9,34.7,30.0,71,54,48,29.99,29.67,18,9,29,0.00
2013-3-12,55.5,42.0,36.0,48.9,36.2,29.5,94,80,70,29.91,29.67,15,6,19,0.27
2013-3-13,41.5,34.0,26.0,31.5,26.2,19.9,85,73,56,29.92,29.81,11,6,22,0.00
2013-3-14,32.6,26.7,20.4,20.6,14.3,10.1,84,61,39,30.05,29.92,19,10,26,0.00
2013-3-15,38.8,32.4,25.6,32.6,25.2,15.9,94,75,60,30.04,29.70,12,6,18,0.04
2013-3-16,30.9,26.3,19.4,22.8,19.4,16.7,91,75,65,29.99,29.85,10,4,12,0.00
2013-3-17,30.6,25.3,19.2,23.1,18.4,11.4,92,76,53,30.36,29.99,8,3,12,0.02
2013-3-18,34.5,23.4,17.3,19.1,15.8,14.4,90,74,49,30.36,30.11,15,6,17,0.00
2013-3-19,38.3,32.4,27.0,35.2,25.9,20.5,93,77,63,29.83,29.69,14,6,28,0.11
2013-3-20,34.4,28.9,24.9,24.3,21.1,17.6,84,73,52,29.83,29.78,11,6,16,0.00
2013-3-21,31.9,26.9,21.1,26.3,19.5,14.9,92,74,52,29.83,29.71,10,5,15,0.00
2013-3-22,33.4,29.7,26.0,27.8,25.5,22.9,93,84,72,29.91,29.73,12,6,16,0.07
2013-3-23,37.5,33.3,29.7,27.8,26.1,24.2,90,75,61,30.00,29.89,12,7,17,0.04
2013-3-24,36.8,31.7,25.5,28.7,26.3,23.5,93,81,65,30.00,29.90,6,2,8,0.00
2013-3-25,40.8,37.3,33.1,31.6,29.6,26.5,89,74,65,29.71,29.61,11,5,14,0.00
2013-3-26,45.1,37.9,31.1,35.2,30.5,27.5,91,76,56,29.92,29.71,8,3,9,0.00
2013-3-27,46.6,38.2,33.0,36.0,31.6,27.7,95,78,59,30.05,29.90,11,5,15,0.02
2013-3-28,45.6,39.3,34.3,37.0,33.0,27.7,95,79,53,30.19,30.03,10,5,14,0.01
2013-3-29,50.1,42.2,37.3,37.5,32.9,27.6,87,71,48,30.19,30.11,13,4,17,0.00
2013-3-30,51.2,40.5,31.7,33.5,28.5,23.2,83,64,36,30.20,30.06,8,3,12,0.00
2013-3-31,57.1,44.5,35.3,43.9,34.2,26.6,94,70,40,30.05,29.62,16,7,18,0.16
2013-4-1,45.6,37.3,28.6,41.9,28.6,16.8,93,72,45,29.93,29.56,16,8,25,0.05
2013-4-2,34.6,29.2,24.1,28.6,22.6,18.0,91,76,60,30.10,29.93,12,7,18,0.01
2013-4-3,37.7,31.7,27.8,26.9,19.9,15.3,86,62,43,30.37,30.10,14,7,20,0.01
2013-4-4,56.2,38.2,26.0,26.4,21.8,17.7,76,55,23,30.35,29.91,9,4,13,0.00
2013-4-5,44.1,38.1,31.8,32.5,26.1,19.6,78,62,46,30.14,29.87,16,7,22,0.00
2013-4-6,47.0,37.1,25.3,24.3,20.8,15.8,78,53,33,30.33,30.06,10,5,14,0.00
2013-4-7,72.0,54.0,44.0,47.3,33.7,22.5,71,47,35,30.05,29.69,15,10,26,0.00
2013-4-8,57.7,46.6,40.4,44.5,37.9,34.3,92,73,50,30.12,29.75,10,4,15,0.01
2013-4-9,58.7,50.3,44.0,51.1,44.8,41.2,96,82,64,30.10,29.74,11,6,19,0.60
2013-4-10,46.5,42.9,40.0,45.7,41.8,38.7,98,96,92,30.07,29.86,11,5,14,0.40
2013-4-11,40.0,35.6,33.1,38.7,32.7,27.8,95,89,70,30.15,29.96,14,7,17,0.25
2013-4-12,51.1,41.4,34.9,48.6,38.6,33.0,98,90,74,29.97,29.55,16,10,23,0.87
2013-4-13,47.0,43.1,40.4,38.8,35.6,32.7,85,75,60,29.92,29.76,12,6,18,0.00
2013-4-14,45.5,39.9,33.9,34.8,30.8,27.7,90,70,54,30.20,29.92,8,4,12,0.02
2013-4-15,73.6,53.9,33.7,52.0,40.7,28.1,80,63,40,30.19,30.00,13,8,19,0.00
2013-4-16,66.0,56.9,44.7,58.4,49.9,34.8,96,78,64,30.22,29.94,15,8,21,0.14
2013-4-17,54.1,45.6,34.4,39.0,35.0,31.6,94,68,47,30.35,30.22,10,4,14,0.00
2013-4-18,75.8,60.4,42.2,58.4,49.2,33.8,80,67,49,30.25,29.71,19,12,26,0.02
2013-4-19,72.5,59.4,42.9,60.9,50.6,32.1,87,73,59,29.75,29.32,18,12,24,0.09
2013-4-20,43.6,39.5,34.1,33.9,27.9,21.2,81,63,52,30.40,29.72,13,8,24,0.01
2013-4-21,43.1,36.2,29.2,28.6,23.1,16.0,84,60,39,30.68,30.40,8,4,9,0.00
2013-4-22,58.6,46.1,31.5,33.2,28.2,23.4,75,52,32,30.62,30.35,14,7,17,0.00
2013-4-23,61.5,51.4,39.3,41.7,35.4,29.6,71,55,43,30.35,29.95,13,9,18,0.00
2013-4-24,69.4,54.7,40.3,55.5,44.4,35.2,91,69,53,29.96,29.58,16,8,19,0.13
2013-4-25,56.6,45.2,36.4,40.2,33.7,27.7,92,67,33,30.30,29.97,9,4,18,0.10
2013-4-26,51.5,44.5,37.7,40.8,35.5,29.8,95,73,46,30.46,30.30,10,3,13,0.03
2013-4-27,67.5,51.7,34.4,43.4,36.5,32.0,93,60,31,30.44,30.22,9,3,13,0.00
2013-4-28,74.1,59.9,46.8,48.9,41.8,37.5,87,54,30,30.22,30.01,14,8,22,0.07
2013-4-29,64.8,57.3,51.2,53.6,50.5,47.0,91,78,65,30.05,29.97,15,9,19,0.08
2013-4-30,72.3,62.5,54.8,56.9,53.6,51.6,93,74,55,30.21,30.04,12,7,17,0.05
2013-5-1,76.6,66.2,55.2,52.7,45.0,36.8,80,51,25,30.33,30.21,12,6,16,0.00
2013-5-2,77.7,63.9,48.2,47.3,41.8,36.9,74,46,25,30.39,30.25,10,4,14,0.00
2013-5-3,75.9,63.7,48.3,52.3,46.1,42.8,85,55,34,30.29,30.19,10,4,12,0.00
2013-5-4,74.0,62.1,48.3,48.8,43.8,40.2,81,53,33,30.27,30.14,11,4,15,0.00
2013-5-5,76.6,61.4,44.6,49.0,45.1,39.6,94,60,27,30.19,30.07,10,3,14,0.00
2013-5-6,76.5,61.4,47.8,47.5,41.8,34.0,87,52,22,30.15,30.00,8,4,13,0.00
2013-5-7,76.2,63.8,50.4,58.9,52.5,44.8,92,68,45,30.10,29.99,8,3,10,0.00
2013-5-8,70.5,62.5,53.3,62.0,56.9,50.5,96,83,63,30.04,29.89,11,5,18,0.10
2013-5-9,70.1,61.0,54.4,62.0,57.8,53.6,98,90,70,29.93,29.84,10,2,12,0.01
2013-5-10,74.4,61.4,51.8,63.2,57.6,51.3,98,88,65,29.93,29.71,13,4,13,0.70
2013-5-11,60.2,55.3,47.6,58.9,51.4,45.0,97,87,72,29.75,29.63,8,4,14,0.08
2013-5-12,52.4,45.8,38.9,46.8,37.2,31.6,96,73,47,29.89,29.67,13,7,23,0.06
2013-5-13,50.8,43.1,37.5,35.3,33.1,30.2,82,68,50,30.11,29.89,9,6,14,0.00
2013-5-14,58.9,46.3,33.9,39.0,35.0,30.7,94,68,38,30.15,29.97,10,3,11,0.00
2013-5-15,81.9,60.3,44.8,61.6,47.0,33.9,89,64,42,29.96,29.50,14,7,18,0.06
2013-5-16,76.0,63.3,50.8,49.3,44.4,36.5,77,53,29,29.97,29.69,13,5,19,0.00
2013-5-17,65.4,53.2,39.0,47.4,42.3,35.1,97,70,33,30.21,29.98,6,1,9,0.00
2013-5-18,71.1,56.9,40.2,50.9,45.2,39.2,97,68,45,30.25,30.13,9,4,14,0.00
2013-5-19,79.7,67.1,57.3,64.2,58.1,51.5,86,74,57,30.14,29.97,12,6,15,0.00
2013-5-20,82.2,71.6,59.0,69.5,63.7,56.7,95,77,62,30.01,29.82,9,4,11,0.00
2013-5-21,84.2,70.0,60.5,72.9,65.3,58.9,97,86,64,29.89,29.72,13,3,15,0.34
2013-5-22,83.8,71.7,59.6,75.2,66.6,59.0,99,85,56,29.77,29.60,8,3,15,0.05
2013-5-23,76.7,67.1,46.7,67.7,60.6,45.3,95,80,59,29.84,29.67,9,4,12,0.24
2013-5-24,51.1,43.8,39.4,44.7,40.2,37.5,96,88,67,30.16,29.85,10,6,15,0.22
2013-5-25,58.3,49.8,41.9,42.0,38.5,36.3,83,67,45,30.19,30.11,12,7,19,0.00
2013-5-26,62.3,53.4,42.2,41.9,38.4,33.8,92,59,37,30.18,30.09,11,6,17,0.00
2013-5-27,68.3,56.3,44.1,46.2,40.2,32.9,87,59,28,30.25,30.12,7,2,9,0.00
2013-5-28,62.9,56.9,49.4,60.0,52.0,42.4,97,84,65,30.15,29.92,9,5,14,0.63
2013-5-29,81.8,71.3,59.2,70.3,64.0,58.1,99,80,51,29.98,29.88,11,4,15,0.69
2013-5-30,87.5,75.6,62.4,71.8,64.9,60.0,96,72,40,30.07,29.98,7,2,9,0.00
2013-5-31,89.9,76.6,63.0,73.3,66.8,61.5,96,74,40,30.04,29.88,7,2,9,0.00
2013-6-1,88.4,75.5,64.8,73.7,67.3,62.1,97,78,52,29.93,29.72,12,4,16,0.62
2013-6-2,77.4,70.1,56.8,68.7,64.0,52.7,98,82,57,29.84,29.64,11,5,17,0.47
2013-6-3,62.4,56.1,50.1,53.1,47.0,42.6,89,72,53,29.99,29.84,8,4,13,0.00
2013-6-4,66.4,56.4,47.4,47.4,44.3,38.0,90,66,38,30.14,29.99,9,3,12,0.00
2013-6-5,67.9,58.1,49.4,56.6,47.7,41.9,87,69,48,30.21,30.07,10,4,12,0.00
2013-6-6,58.3,56.3,54.1,57.5,53.7,49.2,98,91,77,30.08,29.83,10,5,12,2.45
2013-6-7,61.0,58.5,55.9,60.3,57.9,55.6,99,98,95,29.83,29.77,4,2,6,0.14
2013-6-8,65.1,59.1,55.7,61.0,57.8,55.4,100,96,83,30.05,29.77,4,1,8,0.02
2013-6-9,74.2,64.5,55.5,63.3,57.0,52.6,92,78,58,30.17,30.05,8,2,9,0.00
2013-6-10,69.6,64.7,60.5,65.0,61.0,56.3,97,88,76,30.10,29.69,13,7,15,0.19
2013-6-11,67.0,64.1,57.2,64.6,61.8,54.6,99,93,82,29.80,29.61,9,4,16,0.24
2013-6-12,73.5,64.3,53.7,62.2,57.5,52.7,97,80,55,29.91,29.76,7,2,8,0.00
2013-6-13,64.8,60.6,54.5,60.0,58.2,53.7,97,92,82,29.75,29.49,17,6,18,0.85
2013-6-14,73.3,63.2,52.8,62.8,57.7,52.3,99,84,63,29.93,29.75,7,3,10,0.00
2013-6-15,72.8,64.5,51.6,59.3,53.9,47.8,96,70,43,30.02,29.91,7,2,10,0.00
2013-6-16,74.2,67.3,62.0,68.3,61.3,54.6,96,81,69,29.92,29.67,7,4,12,0.28
2013-6-17,77.2,68.4,60.7,67.5,62.3,58.7,97,82,59,29.90,29.78,8,3,16,0.02
2013-6-18,68.3,60.8,52.5,59.7,53.7,49.4,97,79,54,30.00,29.86,10,5,12,0.00
2013-6-19,66.2,58.7,48.8,53.3,48.2,39.2,96,70,38,30.17,30.00,7,3,9,0.00
2013-6-20,73.8,59.9,44.7,57.3,49.3,43.1,98,72,37,30.24,30.18,8,2,11,0.00
2013-6-21,80.3,65.8,49.8,62.9,55.5,49.0,97,73,40,30.25,30.14,7,2,9,0.00
2013-6-22,84.1,72.4,57.9,74.8,66.8,56.7,98,84,58,30.15,29.97,6,2,9,0.06
2013-6-23,87.4,78.3,68.7,77.3,71.8,66.9,98,81,64,30.02,29.95,9,3,9,0.01
2013-6-24,87.9,79.8,72.8,73.8,68.0,63.8,82,68,51,29.99,29.89,9,4,19,0.00
2013-6-25,82.2,76.3,68.3,74.8,68.2,64.6,94,76,65,29.90,29.74,8,3,10,0.22
2013-6-26,83.3,74.2,67.8,72.9,68.8,63.7,95,84,63,29.78,29.73,6,2,9,0.00
2013-6-27,80.0,71.9,62.7,73.8,68.9,62.1,99,91,78,29.77,29.58,11,2,11,0.61
2013-6-28,67.2,64.7,62.1,66.8,63.9,61.2,99,97,96,29.58,29.48,8,3,9,0.24
2013-6-29,74.5,66.9,62.1,69.4,64.2,61.8,99,92,72,29.66,29.48,6,1,8,0.67
2013-6-30,76.3,68.9,60.8,69.3,64.9,60.2,99,88,72,29.90,29.66,8,2,11,0.00
2013-7-1,67.7,65.0,61.4,65.2,63.4,60.5,98,95,88,30.01,29.89,10,6,15,0.28
2013-7-2,76.7,66.6,61.4,72.5,65.0,60.3,99,95,84,30.08,29.99,8,2,11,0.04
2013-7-3,85.2,73.0,63.8,78.4,70.1,63.5,100,91,73,30.12,30.06,7,2,8,0.69
2013-7-4,85.2,74.9,69.1,76.8,71.6,68.6,99,90,64,30.14,30.06,6,1,10,0.15
2013-7-5,85.2,75.9,69.3,76.3,72.7,69.0,99,90,72,30.11,30.01,7,2,11,0.32
2013-7-6,85.0,75.5,69.0,73.3,69.7,67.2,98,84,58,30.11,29.99,5,1,5,0.00
2013-7-7,83.9,76.6,70.0,74.8,70.7,66.8,99,83,63,30.02,29.89,6,3,8,0.06
2013-7-8,83.8,75.0,69.4,75.6,70.6,66.0,97,87,71,30.01,29.93,6,2,7,0.02
2013-7-9,82.9,74.5,68.5,76.3,71.7,67.9,99,92,71,30.01,29.87,5,1,5,0.15
2013-7-10,87.3,77.7,69.3,76.3,71.9,65.3,99,83,66,29.86,29.66,10,4,14,0.00
2013-7-11,76.6,69.6,61.8,66.7,62.8,58.8,98,79,65,29.99,29.77,7,3,10,0.00
2013-7-12,75.5,66.8,59.7,68.5,63.3,59.2,99,89,72,30.16,29.99,6,2,7,0.00
2013-7-13,81.7,71.5,60.0,74.0,67.9,59.7,99,89,73,30.22,30.13,7,2,10,0.00
2013-7-14,89.1,77.2,66.4,76.7,71.3,66.1,100,84,59,30.27,30.20,7,2,9,0.00
2013-7-15,88.0,78.2,69.4,77.6,72.0,67.4,98,83,55,30.26,30.18,5,1,10,0.00
2013-7-16,88.9,78.2,67.5,74.2,69.7,66.0,97,77,54,30.24,30.16,5,1,7,0.00
2013-7-17,93.0,82.0,68.8,81.7,74.2,67.9,98,78,56,30.18,30.02,5,2,8,0.00
2013-7-18,88.2,80.4,75.1,80.8,75.8,71.0,96,86,73,30.05,29.90,7,2,8,0.23
2013-7-19,91.9,82.4,70.6,78.0,72.7,66.1,94,74,52,29.90,29.67,17,5,35,0.07
2013-7-20,79.8,72.3,66.4,71.4,68.1,62.2,98,88,55,29.85,29.66,8,2,8,0.42
2013-7-21,74.8,67.7,60.0,65.5,62.6,59.1,99,85,65,29.99,29.85,7,2,11,0.00
2013-7-22,80.3,68.9,58.0,70.4,64.2,57.7,99,86,61,29.98,29.75,7,2,9,0.01
2013-7-23,84.1,74.1,67.7,73.1,68.0,60.4,99,83,55,29.75,29.57,7,2,10,0.03
2013-7-24,68.4,62.1,52.0,60.9,54.7,51.2,97,77,62,30.02,29.65,9,4,16,0.00
2013-7-25,72.9,61.3,48.0,61.3,54.5,47.5,99,81,49,30.11,30.03,7,2,11,0.01
2013-7-26,75.4,63.8,50.9,63.4,57.1,50.4,99,81,54,30.10,29.99,5,1,8,0.00
2013-7-27,80.1,68.4,56.8,71.8,64.3,55.7,98,88,67,29.99,29.80,8,3,9,0.07
2013-7-28,72.2,67.6,60.0,68.2,64.8,59.1,98,91,74,29.95,29.78,6,2,8,0.04
2013-7-29,73.1,63.7,55.2,63.6,58.3,54.6,98,84,55,30.10,29.95,5,2,9,0.00
2013-7-30,75.1,65.6,57.2,64.9,60.0,55.8,98,83,62,30.17,30.10,5,2,8,0.00
2013-7-31,81.1,67.4,54.2,67.4,61.5,53.7,99,83,51,30.13,29.91,6,1,8,0.00
2013-8-1,76.7,68.7,62.5,71.5,65.1,61.0,99,89,68,29.90,29.74,8,2,12,0.31
2013-8-2,75.3,66.2,59.3,69.0,62.9,58.5,99,90,68,29.87,29.80,6,1,9,0.54
2013-8-3,75.5,67.5,61.2,65.7,61.2,55.9,99,82,52,29.89,29.79,7,2,14,0.21
2013-8-4,71.2,64.6,57.3,62.6,57.4,53.6,94,78,59,30.02,29.89,10,4,13,0.00
2013-8-5,74.1,62.5,51.4,61.3,55.7,50.6,98,81,49,30.09,30.00,6,2,8,0.00
2013-8-6,78.7,65.7,52.4,63.7,59.0,51.9,99,81,50,30.04,29.97,5,2,7,0.00
2013-8-7,80.8,71.5,61.9,71.2,66.0,60.3,96,83,71,29.97,29.85,11,6,12,0.00
2013-8-8,83.2,72.9,66.1,75.0,69.6,64.6,98,90,73,29.93,29.87,7,2,8,0.12
2013-8-9,77.3,70.1,65.5,72.7,67.7,61.0,99,92,73,29.89,29.81,4,1,7,0.45
2013-8-10,71.4,65.0,54.2,62.0,58.4,51.7,98,81,52,30.07,29.89,8,3,13,0.00
2013-8-11,75.9,63.1,50.8,63.1,57.5,50.3,99,84,57,30.11,30.01,4,1,6,0.00
2013-8-12,78.5,67.2,57.8,68.1,62.3,57.1,99,86,59,30.03,29.83,4,1,5,0.00
2013-8-13,73.1,66.2,59.8,69.2,61.6,50.8,99,86,64,29.83,29.71,9,4,16,0.29
2013-8-14,68.3,60.3,54.1,57.2,53.0,50.5,95,78,54,30.05,29.80,10,5,15,0.01
2013-8-15,74.4,60.4,51.8,58.2,53.0,49.5,93,78,49,30.11,30.06,7,2,9,0.00
2013-8-16,76.4,68.3,56.4,63.9,58.4,54.9,98,73,51,30.18,30.13,4,1,5,0.00
2013-8-17,80.2,65.1,51.8,65.9,59.2,51.3,99,83,49,30.28,30.18,6,1,8,0.00
2013-8-18,79.7,67.1,56.6,67.4,61.4,56.0,99,84,53,30.23,30.08,3,1,5,0.00
2013-8-19,80.7,69.2,59.7,69.3,63.3,58.6,99,83,56,30.09,29.99,4,1,7,0.00
2013-8-20,83.6,71.0,61.4,67.9,62.8,58.7,96,77,49,30.10,30.02,5,2,8,0.00
2013-8-21,85.1,71.8,58.4,72.8,65.2,57.8,99,82,56,30.13,29.98,5,1,6,0.00
2013-8-22,84.3,70.7,61.0,73.0,66.9,60.1,98,89,65,30.00,29.85,6,2,10,0.33
2013-8-23,72.1,64.4,53.2,64.0,59.6,52.4,99,86,67,30.19,29.95,6,2,9,0.01
2013-8-24,75.9,62.2,50.8,61.8,55.2,50.3,99,81,48,30.34,30.19,6,1,7,0.00
2013-8-25,82.2,66.4,49.6,67.8,58.4,49.1,99,78,45,30.33,30.10,8,2,11,0.00
2013-8-26,77.6,70.5,65.8,72.3,67.0,61.2,98,89,77,30.10,29.89,6,3,9,0.98
2013-8-27,82.7,72.9,67.5,75.7,70.4,66.9,99,92,75,29.91,29.84,5,1,6,0.00
2013-8-28,83.8,74.2,68.1,76.2,70.8,66.8,99,90,76,29.91,29.81,7,2,10,0.01
2013-8-29,81.9,72.1,64.1,75.2,68.8,62.7,100,90,73,30.01,29.91,5,1,9,0.01
2013-8-30,85.4,73.0,60.5,74.4,67.6,59.8,99,85,58,29.97,29.73,7,1,9,0.00
2013-8-31,81.2,73.7,69.5,74.8,71.1,68.3,98,92,78,29.82,29.68,6,2,9,0.21
2013-9-1,82.6,72.6,66.8,74.1,69.6,65.8,99,91,69,29.82,29.72,8,2,8,0.30
2013-9-2,83.7,72.4,63.9,75.5,69.1,59.6,99,90,72,29.75,29.62,7,2,10,0.11
2013-9-3,67.3,64.1,61.3,60.6,59.2,58.1,94,84,75,29.90,29.74,7,2,11,0.00
2013-9-4,78.6,67.4,54.4,64.6,57.9,52.5,96,74,43,29.96,29.90,7,3,12,0.01
2013-9-5,67.4,59.9,48.0,61.6,51.3,43.5,97,75,50,30.20,29.93,8,2,10,0.00
2013-9-6,70.1,57.2,45.0,55.6,48.8,42.9,94,76,45,30.27,30.08,4,1,9,0.00
2013-9-7,65.9,59.0,49.7,62.6,56.1,48.3,98,90,75,30.08,29.84,5,2,6,0.05
2013-9-8,65.7,61.0,47.7,64.1,53.4,46.1,98,78,52,30.09,29.82,9,3,13,0.06
2013-9-9,77.8,60.2,44.3,64.9,53.9,43.4,99,82,52,30.15,29.95,10,2,10,0.01
2013-9-10,91.0,78.1,64.8,78.7,71.7,61.9,97,82,63,29.96,29.86,9,4,17,0.20
2013-9-11,92.8,82.7,73.7,79.2,73.7,67.5,88,75,54,29.98,29.84,7,4,12,0.00
2013-9-12,74.4,69.6,61.6,70.2,66.6,60.2,97,91,75,29.88,29.68,6,2,10,0.07
2013-9-13,61.6,55.5,50.8,60.4,53.7,48.6,97,94,87,29.99,29.70,6,3,11,0.33
2013-9-14,61.2,52.4,43.6,50.9,47.0,41.9,95,83,63,30.11,29.98,4,2,8,0.00
2013-9-15,69.3,56.9,43.5,58.0,50.4,42.2,98,80,61,30.15,30.03,8,2,14,0.02
2013-9-16,54.5,51.2,41.5,53.8,49.3,40.2,98,94,79,30.36,30.05,8,2,10,0.12
2013-9-17,65.1,50.6,36.7,50.9,43.6,35.9,99,80,47,30.49,30.30,5,1,7,0.01
2013-9-18,74.4,56.6,41.2,57.2,49.1,40.1,98,79,45,30.29,30.09,5,2,7,0.00
2013-9-19,78.8,61.6,45.6,63.9,54.4,44.5,99,80,47,30.11,29.99,5,1,7,0.00
2013-9-20,83.0,67.8,53.3,67.8,60.5,52.2,99,79,54,30.00,29.76,9,4,13,0.01
2013-9-21,68.4,63.6,54.4,63.7,60.7,53.3,98,91,79,29.75,29.60,7,3,14,0.65
2013-9-22,55.4,52.5,50.1,53.1,47.6,43.6,97,84,69,29.99,29.69,10,3,13,0.02
2013-9-23,57.3,51.0,41.5,47.0,44.5,39.9,94,79,64,30.13,30.00,6,2,10,0.00
2013-9-24,62.5,50.5,40.9,50.7,44.6,39.3,97,82,51,30.13,30.00,6,2,10,0.00
2013-9-25,68.7,53.4,42.2,55.4,47.7,41.2,97,83,54,30.00,29.94,5,1,8,0.00
2013-9-26,70.0,54.9,41.1,58.4,49.8,40.0,99,84,59,30.14,29.99,7,2,11,0.00
2013-9-27,67.3,55.3,45.0,59.1,51.4,44.0,99,88,71,30.25,30.14,6,1,8,0.00
2013-9-28,74.0,57.8,45.3,60.9,52.4,44.5,99,84,59,30.29,30.17,8,2,9,0.00
2013-9-29,75.8,60.4,47.2,59.2,53.0,46.1,97,79,52,30.17,29.98,7,3,11,0.00
2013-9-30,76.0,61.5,49.4,64.5,56.7,47.5,98,85,66,30.00,29.91,5,1,6,0.00
2013-10-1,76.0,65.8,59.2,63.3,59.4,55.6,98,81,53,30.00,29.89,6,1,8,0.00
2013-10-2,75.3,65.9,55.6,66.2,60.4,53.4,97,83,58,30.06,29.89,6,2,8,0.00
2013-10-3,72.8,60.1,47.1,59.5,52.6,46.0,98,79,43,30.12,30.00,4,1,5,0.00
2013-10-4,65.3,61.8,59.3,64.7,60.0,56.0,98,94,87,30.05,29.97,6,1,7,0.04
2013-10-5,63.0,60.8,59.1,60.3,58.9,57.5,97,94,87,30.08,30.02,7,1,9,0.00
2013-10-6,81.4,69.3,59.8,73.4,66.0,58.9,99,90,75,30.01,29.73,12,5,13,0.23
2013-10-7,71.7,61.9,51.4,66.7,56.7,47.4,97,83,73,30.00,29.60,10,5,17,0.49
2013-10-8,63.5,53.0,43.4,51.3,46.8,41.9,97,81,56,30.34,30.01,7,2,10,0.00
2013-10-9,68.5,52.4,39.3,51.6,45.9,38.3,99,81,49,30.41,30.27,5,1,9,0.00
2013-10-10,65.6,51.2,38.9,50.9,45.2,37.5,98,82,50,30.28,30.15,5,1,8,0.00
2013-10-11,69.3,51.8,41.8,56.2,47.7,41.0,99,88,55,30.15,30.10,5,1,7,0.00
2013-10-12,74.7,56.1,39.1,54.8,45.1,38.8,99,73,28,30.19,30.12,8,2,11,0.01
2013-10-13,73.5,62.2,52.4,62.1,57.0,46.9,96,84,62,30.26,30.18,9,5,13,0.09
2013-10-14,62.5,56.9,47.4,60.3,54.4,46.0,98,92,72,30.31,30.23,5,1,7,0.19
2013-10-15,68.6,55.0,41.5,58.6,51.2,40.5,99,88,67,30.27,29.95,9,2,11,0.00
2013-10-16,65.6,61.1,58.0,60.4,56.0,50.6,95,83,69,29.95,29.74,8,5,11,0.23
2013-10-17,65.7,57.3,50.5,55.0,51.4,47.9,97,82,56,29.86,29.63,7,2,8,0.24
2013-10-18,60.4,53.5,46.1,53.2,46.0,40.4,97,78,49,29.89,29.69,9,4,12,0.04
2013-10-19,64.7,54.4,45.1,48.7,45.6,42.1,93,73,51,29.88,29.61,12,5,15,0.05
2013-10-20,55.9,47.7,41.3,46.1,42.2,39.0,94,82,60,29.98,29.72,9,4,12,0.00
2013-10-21,67.2,55.7,44.0,50.6,43.3,40.6,95,66,38,29.98,29.77,11,5,14,0.00
2013-10-22,54.4,47.2,38.8,50.3,39.1,30.9,96,75,48,29.83,29.71,10,4,23,0.18
2013-10-23,47.3,40.7,34.2,40.5,36.6,31.4,95,86,74,29.81,29.68,6,2,7,0.04
2013-10-24,49.1,40.5,34.3,38.2,34.6,31.7,95,81,55,30.00,29.77,10,5,18,0.18
2013-10-25,50.6,41.8,35.6,43.1,38.3,34.6,97,88,68,30.17,30.00,6,2,11,0.11
2013-10-26,47.5,44.1,40.0,38.2,34.2,30.2,92,69,54,30.12,29.78,13,7,25,0.01
2013-10-27,48.0,43.4,38.5,39.4,37.3,34.6,92,79,63,30.05,29.79,7,3,10,0.00
2013-10-28,49.6,42.3,28.1,41.1,33.6,25.4,90,72,50,30.39,30.02,9,3,13,0.00
2013-10-29,48.2,35.3,24.4,33.6,29.2,22.7,96,80,53,30.48,30.31,7,1,12,0.00
2013-10-30,56.6,44.4,37.9,45.1,40.2,34.0,97,86,59,30.30,30.10,6,1,8,0.05
2013-10-31,63.1,54.4,42.1,59.7,52.2,39.7,98,92,87,30.09,29.40,12,6,20,0.44
2013-11-1,63.8,58.3,49.6,60.2,51.3,44.1,95,78,57,29.66,29.17,16,10,25,0.37
2013-11-2,51.6,46.0,38.0,48.0,44.1,35.9,96,93,84,29.97,29.58,9,3,14,0.05
2013-11-3,39.6,35.3,28.4,35.9,27.9,24.2,92,75,58,30.53,29.98,7,3,11,0.00
2013-11-4,44.6,34.6,23.8,29.8,24.0,20.5,96,68,40,30.66,30.46,9,3,12,0.00
2013-11-5,58.2,45.9,35.4,38.7,32.5,24.5,69,60,46,30.48,30.32,9,5,10,0.00
2013-11-6,64.4,55.4,44.6,53.9,46.1,37.9,87,72,53,30.33,29.78,15,8,24,0.03
2013-11-7,57.8,45.2,39.2,56.1,40.2,32.7,96,83,63,29.96,29.76,10,5,13,0.42
2013-11-8,42.2,39.4,36.2,35.8,31.9,28.3,92,75,60,30.21,29.93,11,5,19,0.02
2013-11-9,51.4,42.7,35.6,42.7,33.9,30.0,89,71,60,30.21,29.76,11,5,15,0.02
2013-11-10,51.0,44.8,40.9,43.1,37.5,32.1,91,76,66,30.11,29.76,13,6,22,0.05
2013-11-11,47.0,38.8,30.6,38.2,33.5,29.1,96,82,57,30.14,29.90,10,5,16,0.23
2013-11-12,33.6,29.3,27.1,29.0,24.8,20.5,93,83,71,30.38,30.09,11,6,15,0.04
2013-11-13,38.9,31.4,21.2,27.8,22.2,15.7,80,69,55,30.43,30.08,11,6,19,0.07
2013-11-14,52.1,43.1,34.5,31.6,22.2,15.5,63,45,26,30.11,30.00,10,6,17,0.00
2013-11-15,52.8,46.3,39.5,31.6,25.2,20.6,60,44,35,30.11,30.04,9,4,11,0.00
2013-11-16,60.0,50.0,37.7,42.2,35.8,26.1,77,59,45,30.24,30.04,8,4,9,0.00
2013-11-17,59.9,55.2,50.3,55.4,50.6,42.4,94,85,74,30.03,29.35,17,11,21,0.34
2013-11-18,55.1,48.2,37.1,50.1,37.9,29.0,90,68,58,29.85,29.34,15,10,28,0.04
2013-11-19,38.3,35.9,29.9,31.0,27.8,23.1,78,72,61,30.44,29.86,13,6,17,0.01
2013-11-20,39.1,31.2,24.6,25.3,22.3,19.6,92,71,50,30.61,30.44,7,3,8,0.00
2013-11-21,46.4,39.3,30.7,38.2,27.7,18.5,90,63,50,30.48,30.26,10,6,11,0.01
2013-11-22,48.5,42.7,34.3,47.7,41.2,30.0,98,95,83,30.25,29.96,14,4,21,0.24
2013-11-23,38.0,29.5,20.0,30.0,23.5,11.5,93,78,52,30.17,29.97,17,8,30,0.00
2013-11-24,26.0,21.6,18.1,18.8,15.8,11.8,91,78,62,30.40,30.14,12,7,21,0.00
2013-11-25,35.5,28.8,19.2,22.7,16.6,11.6,85,63,38,30.40,30.11,10,6,15,0.00
2013-11-26,37.5,34.5,33.2,32.6,29.5,23.1,97,82,62,30.16,29.82,7,4,12,0.00
2013-11-27,35.3,31.7,24.1,33.7,29.4,19.1,98,91,77,29.86,29.58,16,5,22,0.02
2013-11-28,28.8,24.2,20.6,20.4,17.6,15.7,90,76,62,30.43,29.87,12,4,16,0.10
2013-11-29,29.4,21.5,9.7,22.5,16.6,7.1,95,82,62,30.75,30.44,8,2,13,0.05
2013-11-30,31.9,22.1,6.5,24.4,16.4,3.5,93,79,64,30.75,30.22,13,5,16,0.00
2013-12-1,38.4,33.8,29.3,34.3,29.6,23.3,96,85,74,30.22,29.97,7,3,7,0.14
2013-12-2,42.3,36.7,34.0,36.1,33.9,31.6,97,90,73,29.96,29.85,3,0,4,0.02
2013-12-3,43.1,34.3,27.0,32.3,30.0,25.5,96,85,61,30.01,29.90,4,1,5,0.00
2013-12-4,46.9,38.4,30.2,41.1,35.5,28.7,96,90,77,30.04,29.91,12,4,15,0.01
2013-12-5,60.5,51.2,42.1,55.0,46.3,34.9,91,84,66,29.98,29.73,11,7,14,0.00
2013-12-6,41.0,34.9,32.4,35.4,30.4,25.9,97,84,74,30.24,29.99,6,3,10,0.16
2013-12-7,32.9,29.5,26.5,28.2,21.8,17.5,90,73,56,30.55,30.22,9,4,15,0.00
2013-12-8,30.1,26.3,21.1,24.9,17.7,14.4,92,70,59,30.58,30.24,11,4,15,0.00
2013-12-9,42.5,35.3,27.2,37.8,30.9,24.7,93,84,71,30.22,29.84,13,8,20,0.12
2013-12-10,35.1,26.6,20.4,27.3,18.5,11.5,92,72,59,30.05,29.90,10,5,15,0.00
2013-12-11,26.3,22.4,15.4,21.5,15.1,10.2,89,74,60,30.27,30.05,9,5,15,0.00
2013-12-12,20.5,17.1,11.8,15.7,11.8,7.8,91,80,62,30.32,30.04,9,4,14,0.00
2013-12-13,25.0,20.2,15.9,21.7,15.4,11.4,92,82,67,30.40,30.02,10,5,23,0.00
2013-12-14,23.6,13.8,8.6,22.4,10.9,2.7,95,88,73,30.48,29.79,10,6,15,0.00
2013-12-15,24.5,21.5,16.8,23.5,20.0,15.1,96,94,89,29.83,29.62,11,5,15,0.00
2013-12-16,22.3,15.0,-1.9,19.6,12.6,-5.1,92,90,86,30.20,29.83,12,3,14,0.00
2013-12-17,28.3,18.1,-2.0,27.1,16.4,-4.9,95,93,87,30.17,29.92,7,3,9,0.00
2013-12-18,31.7,28.7,25.4,28.4,25.9,24.2,96,89,80,30.07,29.93,8,4,15,0.09
2013-12-19,44.2,36.0,26.5,34.9,28.8,20.7,89,75,62,30.04,29.89,8,4,15,0.14
2013-12-20,46.3,39.8,35.0,43.5,37.8,33.2,98,93,82,30.01,29.77,6,2,8,0.11
2013-12-21,54.8,39.8,32.5,52.8,39.1,31.7,99,97,83,29.88,29.71,10,4,12,0.53
2013-12-22,45.8,36.7,32.3,45.0,35.8,31.5,99,97,90,29.96,29.56,9,2,14,0.30
2013-12-23,41.8,36.3,28.5,39.1,33.9,25.9,95,91,83,30.24,29.94,7,4,10,0.01
2013-12-24,28.4,21.4,13.0,25.6,19.1,9.3,94,91,85,30.49,30.20,9,4,16,0.00
2013-12-25,25.2,16.1,5.8,17.8,11.3,3.3,92,82,71,30.55,30.24,8,4,10,0.00
2013-12-26,33.7,28.6,25.2,30.0,22.6,17.6,92,78,69,30.27,30.06,8,5,11,0.00
2013-12-27,33.6,28.2,22.7,29.1,23.5,15.3,92,82,71,30.29,30.10,6,3,9,0.00
2013-12-28,45.2,38.5,31.1,36.4,32.0,27.1,95,78,65,30.08,29.93,9,4,14,0.01
2013-12-29,46.5,41.3,31.5,41.4,35.1,29.2,96,79,61,29.93,29.60,12,4,15,0.13
2013-12-30,30.2,19.7,14.9,28.2,15.5,9.6,92,84,75,30.22,29.73,11,6,17,0.00
2013-12-31,26.0,19.4,15.5,20.2,12.6,5.6,86,75,61,30.23,29.97,14,6,21,0.00
2014-1-1,22.0,18.4,14.4,15.5,12.0,8.8,91,76,63,30.41,30.23,8,4,13,0.00
2014-1-2,15.4,12.6,8.5,13.5,10.5,6.2,92,91,90,30.32,30.00,14,9,21,0.00